Retour au catalogue

STARLINK-30942

ActifCommunicationsVLEO
NORAD 58441·PAYLOAD·🇺🇸 United States

Lancé Nov 28, 2023 depuis Cape Canaveral Space Force Station

Loading…

Prochains Passages (prochaines 24 heures)

TLE

FraisSource: CelesTrak SupGP

Époque: Sep 14, 2026, 21:32 UTC

1 58441C 23183E   26257.89770833  .00050294  00000+0  18221-2 0  2578
2 58441  43.0041  52.6591 0001415 270.2823 179.5180 15.27545147    12

Suivez STARLINK-30942 en temps réel avec AllMySat

Download on the App Store